GW4906 Weather Reports


time (UTC)temp
F
wind
direction
speed
knots
gust
knots
rain 1hr
in
rain 24hr
in
rain mn
in
humidity
%
barometer
mb
20260506222512 50 281 8.7 13.9 0.00 0.00 0.00 69 1023.0
20260506222018 50 278 7.8 12.2 0.00 0.00 0.00 69 1023.0
20260506221532 50 298 9.6 13.0 0.00 0.00 0.00 67 1022.9
20260506221014 50 281 7.8 13.0 0.00 0.00 0.00 70 1022.8
20260506220514 50 275 8.7 11.3 0.00 0.00 0.00 70 1022.7
20260506220043 50 284 7.8 12.2 0.00 0.00 0.00 69 1022.8
20260506215515 51 271 7.8 12.2 0.00 0.00 0.00 67 1022.8
20260506215011 52 273 7.0 11.3 0.00 0.00 0.00 65 1022.9
20260506214538 52 319 6.1 11.3 0.00 0.00 0.00 63 1022.8
20260506214013 51 296 6.1 13.9 0.00 0.00 0.00 63 1022.8
20260506213511 51 268 8.7 13.0 0.00 0.00 0.00 63 1022.8
20260506213038 51 307 7.8 13.0 0.00 0.00 0.00 61 1022.9
20260506212515 51 277 8.7 12.2 0.00 0.00 0.00 63 1022.8
20260506212016 52 281 7.0 12.2 0.00 0.00 0.00 62 1022.8
20260506211538 52 286 7.0 12.2 0.00 0.00 0.00 64 1022.8
20260506211013 51 290 7.0 12.2 0.00 0.00 0.00 65 1022.8
20260506210513 51 284 7.8 12.2 0.00 0.00 0.00 65 1022.7
20260506210042 52 282 8.7 13.0 0.00 0.00 0.00 64 1022.8
20260506205514 53 275 7.0 10.4 0.00 0.00 0.00 62 1022.8
20260506205015 53 295 3.5 9.6 0.00 0.00 0.00 62 1022.8
20260506204547 53 265 5.2 8.7 0.00 0.00 0.00 61 1022.7
20260506204012 53 276 3.5 7.0 0.00 0.00 0.00 61 1022.6
20260506203511 54 298 3.5 7.0 0.00 0.00 0.00 58 1022.5
20260506203036 54 324 2.6 9.6 0.00 0.00 0.00 59 1022.6
20260506202514 53 285 2.6 7.8 0.00 0.00 0.00 63 1022.5
20260506202012 53 284 3.5 7.0 0.00 0.00 0.00 61 1022.4
20260506201547 53 295 2.6 8.7 0.00 0.00 0.00 60 1022.4
20260506201015 52 289 2.6 8.7 0.00 0.00 0.00 61 1022.3
20260506200515 52 269 2.6 9.6 0.00 0.00 0.00 61 1022.4
20260506200052 52 329 3.5 8.7 0.00 0.00 0.00 62 1022.3
20260506195516 51 295 3.5 8.7 0.00 0.00 0.00 62 1022.3
20260506195015 51 286 6.1 9.6 0.00 0.00 0.00 63 1022.2
20260506194543 52 284 6.1 9.6 0.00 0.00 0.00 62 1022.1
20260506194017 52 337 4.3 8.7 0.00 0.00 0.00 61 1022.3
20260506193515 51 273 3.5 8.7 0.00 0.00 0.00 65 1022.1
20260506193041 51 344 3.5 8.7 0.00 0.00 0.00 64 1022.1
20260506192515 50 313 0.9 7.8 0.00 0.00 0.00 66 1022.1
20260506192019 49 344 1.7 9.6 0.00 0.00 0.00 68 1022.1
20260506191548 49 320 4.3 9.6 0.00 0.00 0.00 67 1022.0
20260506191013 50 5 4.3 7.8 0.00 0.00 0.00 66 1022.0
20260506190516 49 310 2.6 7.8 0.00 0.00 0.00 68 1022.0
20260506190052 49 323 3.5 7.8 0.00 0.00 0.00 66 1021.9
20260506185515 50 341 2.6 7.8 0.00 0.00 0.00 66 1022.0
20260506185017 50 325 2.6 8.7 0.00 0.00 0.00 68 1022.0
20260506184558 49 306 3.5 9.6 0.00 0.00 0.00 66 1021.8
20260506184018 50 328 6.1 11.3 0.00 0.00 0.00 63 1021.8
20260506183518 51 20 3.5 7.8 0.00 0.00 0.00 65 1022.0
20260506183048 50 292 0.9 5.2 0.00 0.00 0.00 69 1021.7
20260506182512 49 342 1.7 7.8 0.00 0.00 0.00 69 1021.7
20260506182014 48 332 3.5 7.0 0.00 0.00 0.00 69 1021.7
20260506181548 48 342 3.5 7.8 0.00 0.00 0.00 68 1021.8
20260506181019 48 311 2.6 8.7 0.00 0.00 0.00 70 1021.6
20260506180516 48 327 4.3 8.7 0.00 0.00 0.00 68 1021.7
20260506180056 48 322 2.6 7.8 0.00 0.00 0.00 69 1021.8
20260506175515 48 326 3.5 8.7 0.00 0.00 0.00 68 1021.7
20260506175017 48 46 4.3 8.7 0.00 0.00 0.00 68 1021.6
20260506174547 48 38 3.5 9.6 0.00 0.00 0.00 70 1021.8
20260506174016 48 9 4.3 9.6 0.00 0.00 0.00 68 1021.7
20260506173515 49 9 1.7 7.0 0.00 0.00 0.00 69 1021.7
20260506173049 48 346 0.9 7.8 0.00 0.00 0.00 72 1021.8
20260506172515 48 30 1.7 8.7 0.00 0.00 0.00 72 1021.6
20260506172013 47 46 2.6 10.4 0.00 0.00 0.00 70 1021.5
20260506171555 47 352 4.3 8.7 0.00 0.00 0.00 71 1021.6
20260506171017 47 315 5.2 9.6 0.00 0.00 0.00 72 1021.7
20260506170517 47 327 3.5 9.6 0.00 0.00 0.00 73 1021.8
20260506170057 47 302 2.6 7.8 0.00 0.00 0.00 74 1021.7
20260506165516 46 23 3.5 8.7 0.00 0.00 0.00 74 1021.7
20260506165015 46 323 2.6 8.7 0.00 0.00 0.00 76 1021.7
20260506164548 46 350 3.5 5.2 0.00 0.00 0.00 75 1021.6
20260506164019 45 321 1.7 7.8 0.00 0.00 0.00 76 1021.7
20260506163517 45 297 2.6 7.8 0.00 0.00 0.00 76 1021.8
20260506163045 45 335 2.6 7.0 0.00 0.00 0.00 76 1021.8
20260506162516 45 315 2.6 7.0 0.00 0.00 0.00 76 1021.7
20260506162014 45 309 3.5 9.6 0.00 0.00 0.00 76 1021.6
20260506161549 45 351 3.5 9.6 0.00 0.00 0.00 76 1021.6
20260506161016 45 333 2.6 11.3 0.00 0.00 0.00 76 1021.5
20260506160515 44 313 2.6 11.3 0.00 0.00 0.00 77 1021.5
20260506160108 44 355 4.3 11.3 0.00 0.00 0.00 77 1021.6
20260506155515 44 315 6.1 11.3 0.00 0.00 0.00 76 1021.4
20260506155016 44 298 6.1 11.3 0.00 0.00 0.00 77 1021.2
20260506154547 44 317 6.1 10.4 0.00 0.00 0.00 77 1021.1
20260506154016 44 308 5.2 10.4 0.00 0.00 0.00 78 1021.3
20260506153517 44 317 4.3 12.2 0.00 0.00 0.00 79 1021.1
20260506153053 44 313 6.1 12.2 0.00 0.00 0.00 78 1021.0
20260506152520 44 319 6.1 11.3 0.00 0.00 0.00 79 1021.1
20260506152014 44 332 4.3 12.2 0.00 0.00 0.00 79 1021.1
20260506151557 44 340 7.0 12.2 0.00 0.00 0.00 78 1021.0
20260506151017 44 301 6.1 11.3 0.00 0.00 0.00 79 1020.8
20260506150515 44 310 5.2 10.4 0.00 0.00 0.00 79 1021.0
20260506150057 44 321 4.3 12.2 0.00 0.00 0.00 79 1021.0
20260506145515 44 321 4.3 11.3 0.00 0.00 0.00 79 1020.8
20260506145016 44 323 4.3 10.4 0.00 0.00 0.00 79 1021.0
20260506144601 44 345 5.2 13.0 0.00 0.00 0.00 79 1020.9
20260506144018 44 330 7.8 13.0 0.00 0.00 0.00 79 1020.7
20260506143517 43 312 7.8 13.9 0.00 0.00 0.00 79 1020.6
20260506143057 43 302 7.0 13.9 0.00 0.00 0.00 79 1020.6
20260506142515 43 315 6.1 12.2 0.00 0.00 0.00 80 1020.5
20260506142015 43 302 5.2 10.4 0.00 0.00 0.00 80 1020.8
20260506141550 43 310 5.2 11.3 0.00 0.00 0.00 80 1020.6
20260506141014 43 333 6.1 11.3 0.00 0.00 0.00 80 1020.6
20260506140516 43 302 4.3 12.2 0.00 0.00 0.00 80 1020.5
20260506140104 43 303 6.1 13.0 0.00 0.00 0.00 80 1020.6
20260506135517 43 313 7.0 13.9 0.00 0.00 0.00 80 1020.5
20260506135016 44 309 7.8 13.9 0.00 0.00 0.00 80 1020.4
20260506134558 43 344 6.1 13.9 0.00 0.00 0.00 80 1020.3
20260506134014 43 360 6.1 13.9 0.00 0.00 0.00 80 1020.2
20260506133515 43 305 4.3 12.2 0.00 0.00 0.00 80 1020.3
20260506133057 43 319 7.0 12.2 0.00 0.00 0.00 80 1020.2
20260506132516 44 292 6.1 11.3 0.00 0.00 0.00 80 1020.1
20260506132017 44 316 5.2 10.4 0.00 0.00 0.00 80 1020.0
20260506131612 43 324 6.1 10.4 0.00 0.00 0.00 80 1020.3
20260506131021 44 313 4.3 10.4 0.00 0.00 0.00 80 1020.1
20260506130518 44 313 4.3 11.3 0.00 0.00 0.00 80 1020.1
20260506130109 44 328 6.1 11.3 0.00 0.00 0.00 81 1020.0
20260506125515 44 342 7.0 11.3 0.00 0.00 0.00 81 1020.1
20260506125019 44 312 5.2 13.0 0.00 0.00 0.00 80 1020.0
20260506124556 44 302 8.7 13.0 0.00 0.00 0.00 80 1020.0
20260506124016 44 352 5.2 10.4 0.00 0.00 0.00 81 1020.1
20260506123519 44 312 4.3 11.3 0.00 0.00 0.00 80 1020.0
20260506123056 44 9 5.2 13.9 0.00 0.00 0.00 80 1019.9
20260506122510 44 332 6.1 13.9 0.00 0.00 0.00 80 1019.8
20260506122016 44 322 5.2 9.6 0.00 0.00 0.00 81 1019.9
20260506121530 44 295 3.5 10.4 0.00 0.00 0.00 82 1019.8
20260506121010 44 341 5.2 9.6 0.00 0.00 0.00 82 1019.8
20260506120511 44 13 4.3 10.4 0.00 0.00 0.00 83 1019.8
20260506120033 44 349 5.2 10.4 0.00 0.00 0.00 83 1019.7
20260506115509 44 342 4.3 9.6 0.00 0.00 0.00 83 1019.5
20260506115013 44 5 3.5 9.6 0.00 0.00 0.00 83 1019.7
20260506114536 44 313 4.3 8.7 0.00 0.00 0.00 83 1019.6
20260506114011 44 343 5.2 11.3 0.00 0.00 0.00 82 1019.6
20260506113509 44 350 4.3 11.3 0.00 0.00 0.00 82 1019.5
20260506113032 44 316 5.2 9.6 0.00 0.00 0.00 82 1019.5
20260506112517 44 352 4.3 8.7 0.00 0.00 0.00 83 1019.5
20260506112011 44 326 5.2 9.6 0.00 0.00 0.00 82 1019.5
20260506111529 44 330 4.3 9.6 0.00 0.00 0.00 82 1019.5
20260506111013 44 352 5.2 9.6 0.00 0.00 0.00 82 1019.3
20260506110514 44 9 5.2 8.7 0.00 0.00 0.00 82 1019.5
20260506110033 44 331 5.2 9.6 0.00 0.00 0.00 82 1019.4
20260506105517 44 336 5.2 9.6 0.00 0.00 0.00 82 1019.3
20260506105010 44 331 4.3 9.6 0.00 0.00 0.00 82 1019.3
20260506104534 44 314 4.3 8.7 0.00 0.00 0.00 83 1019.3
20260506104011 44 360 5.2 9.6 0.00 0.00 0.00 83 1019.3
20260506103514 44 5 4.3 9.6 0.00 0.00 0.00 83 1019.3
20260506103033 44 325 5.2 10.4 0.00 0.00 0.00 83 1019.1
20260506102513 44 333 6.1 10.4 0.00 0.00 0.00 83 1019.1
20260506102010 44 325 4.3 9.6 0.00 0.00 0.00 84 1019.3
20260506101530 44 319 4.3 11.3 0.00 0.00 0.00 83 1019.3
20260506101011 44 313 6.1 11.3 0.00 0.00 0.00 84 1019.3
20260506100512 44 311 5.2 9.6 0.00 0.00 0.00 84 1019.1
20260506100029 44 330 5.2 9.6 0.00 0.00 0.00 84 1019.2
20260506095510 44 313 5.2 9.6 0.00 0.00 0.00 84 1019.0
20260506095013 44 343 5.2 9.6 0.00 0.00 0.00 84 1019.1
20260506094529 44 350 5.2 10.4 0.00 0.00 0.00 85 1018.9
20260506094009 44 14 5.2 10.4 0.00 0.00 0.00 85 1018.8
20260506093515 44 337 5.2 10.4 0.00 0.00 0.00 85 1018.9
20260506093028 44 346 5.2 10.4 0.00 0.00 0.00 85 1018.8
20260506092516 43 331 6.1 9.6 0.00 0.00 0.00 85 1018.8
20260506092016 44 349 6.1 11.3 0.00 0.00 0.00 84 1018.8
20260506091533 44 352 6.1 11.3 0.00 0.00 0.00 84 1018.8
20260506091014 44 10 5.2 10.4 0.00 0.00 0.00 84 1018.7
20260506090511 44 355 6.1 13.0 0.00 0.00 0.00 84 1018.7
20260506090029 44 346 7.0 13.0 0.00 0.00 0.00 84 1018.9
20260506085511 44 344 6.1 11.3 0.00 0.00 0.00 84 1018.8
20260506085012 44 345 5.2 11.3 0.00 0.00 0.00 83 1018.6
20260506084527 44 330 6.1 11.3 0.00 0.00 0.00 83 1018.7
20260506084011 44 349 6.1 11.3 0.00 0.00 0.00 83 1018.6
20260506083510 44 319 6.1 10.4 0.00 0.00 0.00 82 1018.6
20260506083030 44 339 6.1 11.3 0.00 0.00 0.00 82 1018.7
20260506082512 44 324 6.1 13.9 0.00 0.00 0.00 82 1018.7
20260506082012 44 360 7.0 13.9 0.00 0.00 0.00 81 1018.7
20260506081528 44 319 7.8 11.3 0.00 0.00 0.00 81 1018.8
20260506081013 44 324 6.1 11.3 0.00 0.00 0.00 80 1018.7
20260506080513 44 298 7.0 11.3 0.00 0.00 0.00 80 1018.7
20260506073513 44 296 6.1 11.3 0.00 0.00 0.00 78 1018.6
20260506073029 44 333 6.1 10.4 0.00 0.00 0.00 78 1018.4
20260506072512 44 333 4.3 10.4 0.00 0.00 0.00 77 1018.5
20260506072013 44 340 6.1 10.4 0.00 0.00 0.00 77 1018.5
20260506071527 44 315 6.1 12.2 0.00 0.00 0.00 77 1018.3
20260506071010 44 333 7.0 13.0 0.00 0.00 0.00 77 1018.3
20260506070515 44 5 7.0 13.0 0.00 0.00 0.00 77 1018.3
20260506062512 45 333 7.0 13.9 0.00 0.00 0.00 76 1018.0
20260506062012 45 36 7.0 15.6 0.00 0.00 0.00 76 1017.9
20260506061528 45 332 7.8 15.6 0.00 0.00 0.00 75 1018.1
20260506061016 45 342 7.8 14.8 0.00 0.00 0.00 76 1017.9
20260506060515 45 348 7.8 13.0 0.00 0.00 0.00 76 1018.0
20260506051014 46 338 8.7 15.6 0.00 0.00 0.00 75 1017.7
20260506050514 46 320 7.8 15.6 0.00 0.00 0.00 74 1017.7
20260506045014 47 352 8.7 14.8 0.00 0.00 0.00 73 1017.6
20260506044537 47 333 8.7 14.8 0.00 0.00 0.00 72 1017.5
20260506044012 47 340 8.7 13.0 0.00 0.00 0.00 72 1017.5
20260506043512 48 26 7.8 13.9 0.00 0.00 0.00 70 1017.6
20260506043031 48 347 8.7 13.9 0.00 0.00 0.00 70 1017.3
20260506042517 48 336 6.1 12.2 0.00 0.00 0.00 71 1017.3
20260506042015 48 319 7.0 11.3 0.00 0.00 0.00 71 1017.3
20260506041533 48 346 6.1 12.2 0.00 0.00 0.00 70 1017.0
20260506041012 49 315 5.2 13.0 0.00 0.00 0.00 69 1016.7
20260506040515 49 322 6.1 13.0 0.00 0.00 0.00 68 1016.8
20260506040036 50 317 6.1 11.3 0.00 0.00 0.00 68 1016.6
20260506035517 50 334 5.2 10.4 0.00 0.00 0.00 67 1016.7
20260506035016 51 313 3.5 8.7 0.00 0.00 0.00 67 1016.5
20260506034532 51 327 3.5 8.7 0.00 0.00 0.00 68 1016.5
20260506034011 52 300 2.6 11.3 0.00 0.00 0.00 67 1016.3
20260506033513 53 284 6.1 11.3 0.00 0.00 0.00 65 1016.3
20260506033038 54 277 5.2 10.4 0.00 0.00 0.00 63 1016.3
20260506032515 54 311 2.6 7.0 0.00 0.00 0.00 63 1016.3
20260506032017 55 300 1.7 7.0 0.00 0.00 0.00 65 1016.3
20260506031536 55 270 3.5 6.1 0.00 0.00 0.00 63 1016.2
20260506031016 56 281 2.6 7.8 0.00 0.00 0.00 62 1016.3
20260506030514 56 294 4.3 10.4 0.00 0.00 0.00 60 1016.0
20260506030054 56 286 5.2 10.4 0.00 0.00 0.00 60 1016.0
20260506025514 56 273 6.1 10.4 0.00 0.00 0.00 59 1015.8
20260506025017 57 288 6.1 12.2 0.00 0.00 0.00 59 1016.2
20260506024542 57 281 6.1 13.0 0.00 0.00 0.00 58 1016.1
20260506024015 57 292 7.8 13.9 0.00 0.00 0.00 57 1016.0
20260506023515 58 274 8.7 13.9 0.00 0.00 0.00 55 1015.9
20260506023035 59 288 5.2 10.4 0.00 0.00 0.00 57 1016.0
20260506022514 59 281 6.1 11.3 0.00 0.00 0.00 56 1016.0
20260506022014 58 274 7.0 13.9 0.00 0.00 0.00 56 1016.0
20260506021537 59 279 8.7 13.9 0.00 0.00 0.00 55 1015.9
20260506021011 59 298 6.1 13.0 0.00 0.00 0.00 56 1015.8
20260506020517 60 273 7.8 14.8 0.00 0.00 0.00 54 1015.8
20260506020035 60 290 7.8 14.8 0.00 0.00 0.00 52 1015.8
20260506015517 60 289 7.8 13.0 0.00 0.00 0.00 51 1015.6
20260506015015 60 294 7.0 13.9 0.00 0.00 0.00 52 1015.5
20260506014543 61 289 7.0 13.0 0.00 0.00 0.00 52 1015.5
20260506014012 61 300 7.0 12.2 0.00 0.00 0.00 52 1015.5
20260506013515 61 290 7.0 12.2 0.00 0.00 0.00 52 1015.5
20260506013032 62 300 6.1 13.0 0.00 0.00 0.00 51 1015.4
20260506012513 62 282 7.0 13.0 0.00 0.00 0.00 50 1015.4
20260506012013 62 271 6.1 12.2 0.00 0.00 0.00 53 1015.4
20260506011538 60 259 6.1 13.9 0.00 0.00 0.00 53 1015.4
20260506011015 61 296 8.7 12.2 0.00 0.00 0.00 53 1015.4
20260506010515 60 281 7.0 14.8 0.00 0.00 0.00 55 1015.5
20260506010045 61 274 8.7 15.6 0.00 0.00 0.00 53 1015.4
20260506005515 60 316 8.7 15.6 0.00 0.00 0.00 54 1015.4
20260506005011 60 280 9.6 16.5 0.00 0.00 0.00 55 1015.3
20260506004546 60 314 11.3 16.5 0.00 0.00 0.00 53 1015.3
20260506004015 61 294 10.4 15.6 0.00 0.00 0.00 52 1015.5
20260506003515 62 276 7.8 14.8 0.00 0.00 0.00 54 1015.5
20260506003040 62 292 10.4 14.8 0.00 0.00 0.00 52 1015.4
20260506002513 63 293 10.4 14.8 0.00 0.00 0.00 52 1015.4
20260506002019 63 278 8.7 17.4 0.00 0.00 0.00 52 1015.6
20260506001543 63 290 9.6 17.4 0.00 0.00 0.00 51 1015.5
20260506001014 64 288 11.3 15.6 0.00 0.00 0.00 49 1015.5
20260506000516 65 271 10.4 14.8 0.00 0.00 0.00 49 1015.3
20260506000038 66 291 9.6 14.8 0.00 0.00 0.00 49 1015.3
20260505235514 67 306 9.6 13.9 0.00 0.00 0.00 49 1015.3
20260505235013 67 293 4.3 10.4 0.00 0.00 0.00 51 1015.4
20260505234535 66 317 2.6 8.7 0.00 0.00 0.00 51 1015.4
20260505234016 64 282 0.9 7.0 0.00 0.00 0.00 55 1015.4
20260505233518 62 273 2.6 7.0 0.00 0.00 0.00 57 1015.2
20260505233032 61 236 2.6 7.8 0.00 0.00 0.00 61 1015.3
20260505232516 60 253 3.5 11.3 0.00 0.00 0.00 62 1015.4
20260505232013 60 271 7.0 11.3 0.00 0.00 0.00 59 1015.3
20260505231532 61 277 7.8 11.3 0.00 0.00 0.00 57 1015.3
20260505231014 61 269 7.0 10.4 0.00 0.00 0.00 57 1015.4
20260505230514 60 273 5.2 9.6 0.00 0.00 0.00 55 1015.4
20260505230046 61 267 5.2 8.7 0.00 0.00 0.00 57 1015.2
20260505225515 61 288 5.2 10.4 0.00 0.00 0.00 57 1015.3
20260505225020 61 270 6.1 13.0 0.00 0.00 0.00 54 1015.2
20260505224537 61 274 9.6 13.0 0.00 0.00 0.00 54 1015.2
20260505224015 62 288 8.7 13.9 0.00 0.00 0.00 55 1015.4
20260505223514 62 283 9.6 15.6 0.00 0.00 0.00 54 1015.4
20260505223035 62 303 10.4 16.5 0.00 0.00 0.00 55 1015.4